Location: Hickory_CSC
(35.7330°N, 81.3330°W)
Time: 15:45:53
(UTC-04:00)

Cosmos 1356 Rocket - Visible Passes

Search period start: 29 April 2016 00:00
Search period end: 09 May 2016 00:00
Orbit: 545 x 601 km, 81.2° (Epoch: 28 April)

Date Brightness Start Highest point End Pass type
(mag) Time Alt. Az. Time Alt. Az. Time Alt. Az.
29 Apr 3.4 20:36:41 10° N 20:40:44 61° E 20:44:42 10° SSE visible
30 Apr 3.3 20:39:31 10° N 20:43:37 87° E 20:47:37 10° S visible
01 May 3.8 20:42:24 10° NNW 20:46:28 67° W 20:50:25 10° S visible
02 May 4.5 20:45:23 10° NNW 20:49:17 46° W 20:53:07 10° SSW visible
03 May 5.2 20:48:26 10° NNW 20:52:06 33° W 20:55:41 10° SSW visible
04 May 5.9 20:51:36 10° NW 20:54:53 24° W 20:58:07 10° SW visible
05 May 6.2 20:54:56 10° NW 20:57:39 18° W 21:00:21 10° SW visible
06 May 6.5 20:58:35 10° WNW 21:00:24 13° W 21:02:13 10° WSW visible
